Date String (YYYY-MM-DD hh:mm:ss) UTC,Instrument flags,Ambient pressure (hPa),Sample flow (lpm),Bypass flow (lpm),Sample temperature (°C),Ambient temperature (°C),ASC tube jacket temperature (°C),LED temperature (°C),Box temperature (°C),Sample RH (%),Span deviation,Mass concentration (μg/m³),Mass concentration (μg/m³),Mass concentration (μg/m³)
DateTimeUTC,F1_M11,P_M11,Q1_M11,Q2_M11,T1_M11,T2_M11,T3_M11,T4_M11,T5_M11,U1_M11,ZSPAN_M11,X2_M11,X0_M11,X1_M11
2023-03-13 11:00:00,,0826.2,5.00,0.00,22.5,20.8,00.0,31.2,24.2,12.4,0000.0,0005.00,0008.83,0004.65
2023-03-13 11:01:00,,0826.1,5.00,0.00,22.4,20.6,00.0,31.2,24.1,12.4,0000.0,0005.00,0008.46,0004.64
2023-03-13 11:02:00,,0826.2,5.00,0.00,22.4,20.6,00.0,31.2,24.1,12.5,0000.0,0004.99,0008.37,0004.65
2023-03-13 11:03:00,,0825.8,5.01,0.00,22.4,20.5,00.0,31.2,24.1,12.5,-001.2,0004.97,0008.37,0004.64
2023-03-13 11:04:00,,0825.7,4.99,0.00,22.4,20.5,00.0,31.2,24.1,12.5,-001.7,0004.95,0008.63,0004.62
2023-03-13 11:05:00,,0825.7,5.01,0.00,22.4,20.9,00.0,31.2,24.1,12.5,-001.2,0004.95,0008.67,0004.62
2023-03-13 11:06:00,,0825.7,4.99,0.00,22.5,22.0,00.0,31.1,24.4,12.4,-000.3,0004.95,0008.65,0004.62
2023-03-13 11:07:00,,0825.7,5.00,0.00,22.6,22.8,00.0,31.2,24.6,12.4,-000.1,0004.96,0008.66,0004.63
2023-03-13 11:08:00,,0825.7,5.01,0.00,22.6,22.7,00.0,31.2,24.5,12.3,-000.0,0004.97,0008.68,0004.64
2023-03-13 11:09:00,,0825.6,5.01,0.00,22.6,22.2,00.0,31.2,24.5,12.3,0000.2,0004.95,0008.32,0004.63
2023-03-13 11:10:00,,0825.6,5.00,0.00,22.6,21.9,00.0,31.2,24.4,12.3,0000.5,0004.91,0007.80,0004.63
2023-03-13 11:11:00,,0825.7,4.99,0.00,22.6,21.6,00.0,31.3,24.4,12.3,0000.1,0004.91,0007.76,0004.63
2023-03-13 11:12:00,,0825.9,5.01,0.00,22.6,21.3,00.0,31.3,24.3,12.3,0000.8,0004.90,0007.69,0004.63
2023-03-13 11:13:00,,0825.8,5.01,0.00,22.6,21.2,00.0,31.3,24.3,12.3,0001.2,0004.90,0007.68,0004.62
2023-03-13 11:14:00,,0825.8,5.04,0.00,22.5,21.0,00.0,31.2,24.2,12.3,0000.6,0004.90,0007.63,0004.63
2023-03-13 11:15:00,,0825.8,4.98,0.00,22.5,20.9,00.0,31.2,24.2,12.3,0001.5,0004.92,0007.36,0004.64
2023-03-13 11:16:00,,0825.7,4.96,0.00,22.5,20.8,00.0,31.2,24.2,12.3,0001.3,0004.93,0007.31,0004.64
2023-03-13 11:17:00,,0825.7,5.02,0.00,22.4,20.7,00.0,31.2,24.1,12.3,0001.3,0004.96,0007.41,0004.66
2023-03-13 11:18:00,,0825.8,5.01,0.00,22.4,20.6,00.0,31.2,24.1,12.3,0000.7,0004.99,0007.53,0004.67
2023-03-13 11:19:00,,0826.0,5.01,0.00,22.4,20.6,00.0,31.2,24.1,12.3,0000.2,0004.96,0007.47,0004.68
2023-03-13 11:20:00,,0825.8,5.00,0.00,22.3,20.5,00.0,31.2,24.0,12.3,-000.4,0004.96,0007.44,0004.69
2023-03-13 11:21:00,,0825.9,5.01,0.00,22.3,20.5,00.0,31.2,24.0,12.3,-000.5,0004.99,0007.53,0004.69
2023-03-13 11:22:00,,0825.8,5.00,0.00,22.3,20.9,00.0,31.1,24.1,12.3,-000.2,0004.99,0007.56,0004.70
2023-03-13 11:23:00,,0825.8,5.03,0.00,22.4,21.9,00.0,31.1,24.3,12.2,-000.6,0004.99,0007.58,0004.69
2023-03-13 11:24:00,,0825.9,5.01,0.00,22.5,22.8,00.0,31.1,24.5,12.2,-000.6,0004.98,0007.51,0004.69
2023-03-13 11:25:00,,0825.9,4.98,0.00,22.6,22.7,00.0,31.2,24.5,12.1,0000.2,0004.96,0007.45,0004.70
2023-03-13 11:26:00,,0825.9,4.99,0.00,22.6,22.3,00.0,31.2,24.4,12.1,-000.4,0004.92,0007.37,0004.68
2023-03-13 11:27:00,,0825.9,5.00,0.00,22.6,21.9,00.0,31.2,24.4,12.1,-000.5,0004.91,0007.40,0004.68
2023-03-13 11:28:00,,0825.8,4.99,0.00,22.6,21.6,00.0,31.2,24.3,12.1,-000.6,0004.92,0007.38,0004.69
2023-03-13 11:29:00,,0825.8,5.00,0.00,22.5,21.3,00.0,31.2,24.3,12.1,-000.1,0004.91,0007.21,0004.69
2023-03-13 11:30:00,,0825.8,4.99,0.00,22.5,21.2,00.0,31.2,24.2,12.0,0000.0,0004.94,0007.29,0004.69
2023-03-13 11:31:00,,0825.9,5.00,0.00,22.5,21.0,00.0,31.2,24.2,12.0,0000.0,0004.98,0007.40,0004.72
2023-03-13 11:32:00,,0826.0,5.00,0.00,22.5,20.9,00.0,31.2,24.2,12.1,0000.0,0004.96,0007.29,0004.72
2023-03-13 11:33:00,,0825.9,5.00,0.00,22.4,20.8,00.0,31.2,24.1,12.0,0000.0,0004.94,0007.10,0004.73
2023-03-13 11:34:00,,0825.9,5.01,0.00,22.4,20.7,00.0,31.2,24.1,12.1,0000.0,0004.97,0007.19,0004.76
2023-03-13 11:35:00,,0826.0,5.00,0.00,22.4,20.6,00.0,31.2,24.0,12.1,0000.0,0005.01,0007.34,0004.78
2023-03-13 11:36:00,,0826.0,5.01,0.00,22.3,20.6,00.0,31.2,24.0,12.2,0000.0,0005.05,0007.42,0004.80
2023-03-13 11:37:00,,0826.0,5.00,0.00,22.3,20.6,00.0,31.1,24.0,12.2,0000.0,0005.07,0007.46,0004.81
2023-03-13 11:38:00,,0826.0,5.00,0.00,22.4,21.5,00.0,31.1,24.2,12.2,0000.0,0005.08,0007.42,0004.82
2023-03-13 11:39:00,,0825.9,5.01,0.00,22.5,22.5,00.0,31.1,24.4,12.1,0000.0,0005.06,0007.37,0004.82
2023-03-13 11:40:00,,0825.9,4.99,0.00,22.6,23.0,00.0,31.2,24.6,12.0,0001.5,0005.04,0007.42,0004.82
2023-03-13 11:41:00,,0825.9,4.97,0.00,22.6,22.6,00.0,31.2,24.5,12.0,0002.0,0005.05,0007.68,0004.82
2023-03-13 11:42:00,,0825.9,5.02,0.00,22.6,22.2,00.0,31.2,24.5,12.0,0001.9,0005.05,0007.83,0004.81
2023-03-13 11:43:00,,0825.9,5.00,0.00,22.6,21.8,00.0,31.2,24.4,12.0,0001.6,0005.06,0007.87,0004.82
2023-03-13 11:44:00,,0825.9,5.00,0.00,22.6,21.6,00.0,31.2,24.3,12.0,0001.4,0005.09,0008.13,0004.83
2023-03-13 11:45:00,,0825.9,5.00,0.00,22.6,21.4,00.0,31.2,24.3,12.0,0001.3,0005.09,0008.39,0004.84
2023-03-13 11:46:00,,0825.9,5.00,0.00,22.5,21.2,00.0,31.2,24.3,12.0,0000.5,0005.10,0008.40,0004.85
2023-03-13 11:47:00,,0825.9,5.01,0.00,22.5,21.1,00.0,31.2,24.3,12.0,0000.3,0005.12,0008.51,0004.86
2023-03-13 11:48:00,,0825.9,5.00,0.00,22.5,21.0,00.0,31.2,24.2,12.0,0000.1,0005.16,0008.66,0004.87
2023-03-13 11:49:00,,0825.9,5.00,0.00,22.5,20.9,00.0,31.2,24.2,12.0,-000.2,0005.19,0008.71,0004.89
2023-03-13 11:50:00,,0826.0,5.00,0.00,22.5,20.8,00.0,31.2,24.2,12.0,-000.2,0005.22,0008.76,0004.89
2023-03-13 11:51:00,,0825.9,5.00,0.00,22.4,20.8,00.0,31.2,24.1,12.0,-000.7,0005.23,0008.74,0004.89
2023-03-13 11:52:00,,0825.9,5.01,0.00,22.4,20.7,00.0,31.2,24.1,12.0,-000.9,0005.22,0008.42,0004.90
2023-03-13 11:53:00,,0825.9,5.01,0.00,22.4,20.7,00.0,31.2,24.1,12.1,-000.9,0005.18,0008.23,0004.89
2023-03-13 11:54:00,,0825.8,4.99,0.00,22.4,20.7,00.0,31.2,24.1,12.1,-000.3,0005.18,0008.25,0004.89
2023-03-13 11:55:00,,0825.8,5.00,0.00,22.4,20.7,00.0,31.2,24.1,12.1,-001.1,0005.18,0008.02,0004.88
2023-03-13 11:56:00,,0825.8,4.99,0.00,22.4,21.4,00.0,31.1,24.2,12.1,-001.4,0005.16,0007.75,0004.87
2023-03-13 11:57:00,,0825.9,4.94,0.00,22.5,22.4,00.0,31.1,24.4,12.1,-001.6,0005.14,0008.35,0004.86
2023-03-13 11:58:00,,0825.9,5.03,0.00,22.6,23.1,00.0,31.2,24.6,12.0,-001.4,0005.13,0008.95,0004.84
2023-03-13 11:59:00,,0825.9,4.99,0.00,22.6,22.7,00.0,31.2,24.6,12.0,-001.5,0005.09,0008.81,0004.83
